Location: Mizzole
(45.4833°N, 11.0500°E)
Time: 03:53:12
(UTC+00:00)

CZ-4 R/B - Pass Details

Date: 21 October 2019
Orbit: 581 x 588 km, 97.8° (Epoch: 20 November)

Event Time Altitude Azimuth Distance (km) Brightness Sun altitude
Rises 17:15:26 0° 160° (SSE) 2,789 7.8 -10.3°
Reaches altitude 10° 17:17:35 10° 158° (SSE) 1,894 6.9 -10.6°
Maximum altitude 17:21:40 70° 75° (ENE) 622 4.3 -11.4°
Drops below altitude 10° 17:25:47 10° 352° (N) 1,909 7.1 -12.1°
Sets 17:27:57 0° 350° (N) 2,814 8.0 -12.5°
